When you browse on this site, cookies collect data to enhance your experience and personalize the content and advertising you see.
Visit our Privacy Policy to learn more. By continuing to use the site, you agree to this use of cookies and data.

Hourly Weather Albany

Today, 6 July, Monday

Time Temperature Precipitation Wind Pressure Humidity
00:00 +16°C° 0 mm 5 mps 756 mmHg 48%
01:00 +16°C° 0 mm 5 mps 756 mmHg 48%
02:00 +15°C° 0 mm 5 mps 755 mmHg 48%
03:00 +15°C° 0 mm 5 mps 755 mmHg 50%
04:00 +14°C° 0 mm 5 mps 755 mmHg 51%
05:00 +14°C° 0 mm 5 mps 755 mmHg 53%
06:00 +13°C° 0.1 mm 5 mps 755 mmHg 63%
07:00 +13°C° 0.1 mm 5 mps 755 mmHg 73%
08:00 +13°C° 0.1 mm 5 mps 755 mmHg 83%
09:00 +14°C° 0 mm 6 mps 755 mmHg 76%
10:00 +15°C° 0 mm 7 mps 756 mmHg 69%
11:00 +17°C° 0 mm 8 mps 756 mmHg 62%
12:00 +17°C° 0.1 mm 8 mps 755 mmHg 61%
13:00 +17°C° 0.1 mm 8 mps 754 mmHg 60%
14:00 +17°C° 0.1 mm 9 mps 753 mmHg 59%
15:00 +16°C° 0.3 mm 8 mps 754 mmHg 66%
16:00 +15°C° 0.3 mm 8 mps 754 mmHg 73%
17:00 +12°C° 0.3 mm 8 mps 754 mmHg 79%
18:00 +12°C° 0 mm 9 mps 754 mmHg 79%
19:00 +12°C° 0 mm 9 mps 754 mmHg 79%
20:00 +12°C° 0 mm 10 mps 754 mmHg 79%
21:00 +12°C° 0 mm 9 mps 755 mmHg 79%
22:00 +12°C° 0 mm 9 mps 755 mmHg 79%
23:00 +12°C° 0 mm 9 mps 755 mmHg 79%

Tomorrow, 7 July, Tuesday

Time Temperature Precipitation Wind Pressure Humidity
00:00 +12°C° 0.1 mm 8 mps 755 mmHg 81%
01:00 +12°C° 0.1 mm 8 mps 755 mmHg 82%
02:00 +12°C° 0.1 mm 8 mps 756 mmHg 84%
03:00 +12°C° 0.3 mm 8 mps 756 mmHg 84%
04:00 +12°C° 0.3 mm 8 mps 757 mmHg 83%
05:00 +12°C° 0.3 mm 8 mps 757 mmHg 83%
06:00 +12°C° 0.2 mm 8 mps 757 mmHg 85%
07:00 +12°C° 0.2 mm 7 mps 758 mmHg 87%
08:00 +12°C° 0.2 mm 7 mps 758 mmHg 88%
09:00 +12°C° 0.2 mm 7 mps 759 mmHg 85%
10:00 +14°C° 0.2 mm 7 mps 759 mmHg 81%
11:00 +13°C° 0.2 mm 8 mps 760 mmHg 78%
12:00 +13°C° 0.1 mm 8 mps 759 mmHg 73%
13:00 +13°C° 0.1 mm 8 mps 759 mmHg 68%
14:00 +13°C° 0.1 mm 8 mps 759 mmHg 63%
15:00 +14°C° 0 mm 7 mps 759 mmHg 65%
16:00 +13°C° 0 mm 6 mps 759 mmHg 67%
17:00 +11°C° 0 mm 6 mps 759 mmHg 69%
18:00 +11°C° 0.7 mm 6 mps 759 mmHg 75%
19:00 +11°C° 0.7 mm 6 mps 759 mmHg 81%
20:00 +10°C° 0.7 mm 6 mps 759 mmHg 87%
21:00 +10°C° 0.1 mm 6 mps 760 mmHg 87%
22:00 +9°C° 0.1 mm 6 mps 760 mmHg 87%
23:00 +8°C° 0.1 mm 6 mps 760 mmHg 87%

Day after tomorrow, 8 July, Wednesday

Time Temperature Precipitation Wind Pressure Humidity
00:00 +8°C° 0.1 mm 6 mps 760 mmHg 87%
01:00 +8°C° 0.1 mm 6 mps 761 mmHg 88%
02:00 +8°C° 0.1 mm 6 mps 761 mmHg 88%
03:00 +8°C° 0.1 mm 5 mps 761 mmHg 88%
04:00 +8°C° 0.1 mm 5 mps 761 mmHg 89%
05:00 +8°C° 0.1 mm 5 mps 761 mmHg 89%
06:00 +8°C° 0.1 mm 5 mps 762 mmHg 89%
07:00 +8°C° 0.1 mm 4 mps 762 mmHg 89%
08:00 +8°C° 0.1 mm 4 mps 762 mmHg 89%
09:00 +10°C° 0.1 mm 4 mps 762 mmHg 87%
10:00 +11°C° 0.1 mm 4 mps 763 mmHg 86%
11:00 +12°C° 0.1 mm 4 mps 763 mmHg 84%
12:00 +12°C° 0.3 mm 4 mps 763 mmHg 85%
13:00 +12°C° 0.3 mm 5 mps 763 mmHg 86%
14:00 +12°C° 0.3 mm 5 mps 762 mmHg 87%
15:00 +10°C° 0.1 mm 5 mps 763 mmHg 85%
16:00 +10°C° 0.1 mm 5 mps 763 mmHg 83%
17:00 +10°C° 0.1 mm 5 mps 763 mmHg 81%
18:00 +10°C° 0 mm 5 mps 763 mmHg 81%
19:00 +10°C° 0 mm 5 mps 764 mmHg 80%
20:00 +9°C° 0 mm 5 mps 764 mmHg 80%
21:00 +9°C° 0.1 mm 5 mps 764 mmHg 80%
22:00 +9°C° 0.1 mm 5 mps 764 mmHg 80%
23:00 +9°C° 0.1 mm 5 mps 764 mmHg 80%

9 July, Thursday

Time Temperature Precipitation Wind Pressure Humidity
00:00 +9°C° 0.1 mm 5 mps 764 mmHg 79%
01:00 +9°C° 0.1 mm 5 mps 764 mmHg 78%
02:00 +9°C° 0.1 mm 5 mps 764 mmHg 77%
03:00 +9°C° 0.1 mm 5 mps 764 mmHg 77%
04:00 +10°C° 0.1 mm 4 mps 764 mmHg 77%
05:00 +10°C° 0.1 mm 4 mps 764 mmHg 77%
06:00 +10°C° 0.3 mm 4 mps 765 mmHg 80%
07:00 +9°C° 0.3 mm 5 mps 765 mmHg 83%
08:00 +9°C° 0.3 mm 5 mps 765 mmHg 86%
09:00 +10°C° 0.2 mm 6 mps 765 mmHg 80%
10:00 +11°C° 0.2 mm 6 mps 765 mmHg 74%
11:00 +11°C° 0.2 mm 7 mps 766 mmHg 68%
12:00 +11°C° 0 mm 6 mps 765 mmHg 64%
13:00 +11°C° 0 mm 6 mps 765 mmHg 60%
14:00 +11°C° 0 mm 6 mps 765 mmHg 56%
15:00 +12°C° 0 mm 5 mps 765 mmHg 60%
16:00 +10°C° 0 mm 5 mps 766 mmHg 65%
17:00 +9°C° 0 mm 5 mps 766 mmHg 70%
18:00 +10°C° 0 mm 4 mps 766 mmHg 69%
19:00 +10°C° 0 mm 4 mps 767 mmHg 68%
20:00 +10°C° 0 mm 4 mps 767 mmHg 67%
21:00 +10°C° 0 mm 4 mps 767 mmHg 69%
22:00 +10°C° 0 mm 4 mps 767 mmHg 70%
23:00 +10°C° 0 mm 4 mps 768 mmHg 72%

10 July, Friday

Time Temperature Precipitation Wind Pressure Humidity
00:00 +10°C° 0 mm 4 mps 768 mmHg 71%
01:00 +10°C° 0 mm 4 mps 768 mmHg 71%
02:00 +10°C° 0 mm 4 mps 767 mmHg 71%
03:00 +10°C° 0 mm 4 mps 768 mmHg 71%
04:00 +10°C° 0 mm 3 mps 768 mmHg 70%
05:00 +10°C° 0 mm 3 mps 768 mmHg 70%
06:00 +10°C° 0 mm 3 mps 768 mmHg 70%
07:00 +10°C° 0 mm 3 mps 768 mmHg 70%
08:00 +10°C° 0 mm 3 mps 769 mmHg 71%
09:00 +10°C° 0 mm 3 mps 769 mmHg 68%
10:00 +12°C° 0 mm 2 mps 769 mmHg 65%
11:00 +13°C° 0 mm 2 mps 769 mmHg 62%
12:00 +13°C° 0 mm 2 mps 769 mmHg 60%
13:00 +13°C° 0 mm 2 mps 768 mmHg 58%
14:00 +14°C° 0 mm 2 mps 768 mmHg 55%
15:00 +13°C° 0 mm 2 mps 768 mmHg 60%
16:00 +12°C° 0 mm 2 mps 768 mmHg 64%
17:00 +10°C° 0 mm 2 mps 769 mmHg 69%
18:00 +10°C° 0 mm 2 mps 769 mmHg 72%
19:00 +9°C° 0 mm 2 mps 769 mmHg 74%
20:00 +9°C° 0 mm 2 mps 769 mmHg 77%
21:00 +9°C° 0 mm 2 mps 769 mmHg 76%
22:00 +9°C° 0 mm 2 mps 769 mmHg 76%
23:00 +9°C° 0 mm 2 mps 769 mmHg 75%

11 July, Saturday

Time Temperature Precipitation Wind Pressure Humidity
00:00 +9°C° 0 mm 2 mps 769 mmHg 75%
01:00 +9°C° 0 mm 2 mps 769 mmHg 75%
02:00 +9°C° 0 mm 2 mps 769 mmHg 74%
03:00 +8°C° 0 mm 2 mps 768 mmHg 78%
04:00 +7°C° 0 mm 2 mps 768 mmHg 82%
05:00 +6°C° 0 mm 2 mps 768 mmHg 86%
06:00 +6°C° 0 mm 2 mps 768 mmHg 86%
07:00 +5°C° 0 mm 3 mps 768 mmHg 86%
08:00 +5°C° 0 mm 3 mps 768 mmHg 86%
09:00 +8°C° 0 mm 3 mps 768 mmHg 79%
10:00 +10°C° 0 mm 4 mps 768 mmHg 71%
11:00 +12°C° 0 mm 4 mps 767 mmHg 63%
12:00 +13°C° 0 mm 4 mps 767 mmHg 61%
13:00 +13°C° 0 mm 4 mps 766 mmHg 59%
14:00 +14°C° 0 mm 4 mps 765 mmHg 56%
15:00 +13°C° 0 mm 4 mps 765 mmHg 60%
16:00 +12°C° 0 mm 4 mps 764 mmHg 64%
17:00 +11°C° 0 mm 4 mps 764 mmHg 68%
18:00 +10°C° 0 mm 4 mps 764 mmHg 71%
19:00 +8°C° 0 mm 4 mps 764 mmHg 74%
20:00 +7°C° 0 mm 4 mps 763 mmHg 77%
21:00 +6°C° 0 mm 4 mps 763 mmHg 77%
22:00 +6°C° 0 mm 4 mps 762 mmHg 78%
23:00 +6°C° 0 mm 4 mps 762 mmHg 79%
Show more